GW1401 Weather Reports


time (UTC)temp
F
wind
direction
speed
knots
gust
knots
rain 1hr
in
rain 24hr
in
rain mn
in
humidity
%
barometer
mb
20260906100330 73 128 0.0 0.0 0.00 0.00 0.00 98 1017.0
20260906095825 73 8 0.9 0.9 0.00 0.00 0.00 98 1016.8
20260906095321 73 122 0.0 0.0 0.00 0.00 0.00 98 1016.9
20260906094820 73 129 0.0 0.9 0.00 0.00 0.00 98 1016.8
20260906094315 73 120 0.0 1.7 0.00 0.00 0.00 98 1016.4
20260906093812 73 127 0.0 0.0 0.00 0.00 0.00 97 1016.6
20260906093307 73 121 0.0 0.0 0.00 0.00 0.00 97 1016.5
20260906092802 73 125 0.0 0.9 0.00 0.00 0.00 97 1016.4
20260906092305 73 113 0.0 1.7 0.00 0.00 0.00 97 1016.5
20260906091758 73 124 0.0 0.0 0.00 0.00 0.00 97 1016.5
20260906091254 73 123 0.0 0.0 0.00 0.00 0.00 97 1016.4
20260906090750 73 129 0.0 0.0 0.00 0.00 0.00 97 1016.4
20260906090248 73 135 0.0 0.0 0.00 0.00 0.00 96 1016.2
20260906085748 73 130 0.0 0.0 0.00 0.00 0.00 96 1016.3
20260906085242 74 107 0.0 0.0 0.00 0.00 0.00 95 1016.2
20260906084736 74 133 0.0 0.0 0.00 0.00 0.00 95 1016.4
20260906084231 74 128 0.0 0.0 0.00 0.00 0.00 94 1016.4
20260906083726 75 124 0.0 0.0 0.00 0.00 0.00 94 1016.3
20260906083221 75 124 0.0 0.0 0.00 0.00 0.00 94 1016.5
20260906082716 75 126 0.0 0.0 0.00 0.00 0.00 94 1016.4
20260906082211 75 140 0.0 0.0 0.00 0.00 0.00 94 1016.3
20260906081707 75 123 0.0 0.0 0.00 0.00 0.00 94 1016.3
20260906081202 75 121 0.0 0.0 0.00 0.00 0.00 94 1016.5
20260906080659 75 115 0.0 0.0 0.00 0.00 0.00 95 1016.5
20260906080154 75 115 0.0 0.9 0.00 0.00 0.00 95 1016.4
20260906075654 75 113 0.0 0.0 0.00 0.00 0.00 96 1016.5
20260906075143 75 111 0.0 0.9 0.00 0.00 0.00 97 1016.4
20260906074638 75 136 0.9 0.9 0.00 0.00 0.00 98 1016.4
20260906074137 74 12 0.9 1.7 0.00 0.00 0.00 98 1016.3
20260906073632 74 116 0.0 0.0 0.00 0.00 0.00 99 1016.3
20260906073128 74 123 0.0 0.0 0.00 0.00 0.00 99 1016.4
20260906072623 74 125 0.0 0.0 0.00 0.00 0.00 99 1016.2
20260906072119 74 109 0.0 0.0 0.00 0.00 0.00 99 1016.1
20260906071615 74 118 0.0 0.0 0.00 0.00 0.00 98 1016.1
20260906071109 74 120 0.0 0.0 0.00 0.00 0.00 98 1016.4
20260906070606 74 108 0.0 0.0 0.00 0.00 0.00 98 1016.2
20260906070101 74 127 0.0 0.9 0.00 0.00 0.00 98 1016.5
20260906065601 74 108 0.0 0.9 0.00 0.00 0.00 98 1016.4
20260906065056 74 118 0.0 0.0 0.00 0.00 0.00 98 1016.5
20260906064552 74 94 0.0 0.0 0.00 0.00 0.00 97 1016.4
20260906064046 75 114 0.0 0.0 0.00 0.00 0.00 97 1016.4
20260906063542 75 116 0.0 0.0 0.00 0.00 0.00 97 1016.5
20260906063038 75 114 0.0 0.9 0.00 0.00 0.00 97 1016.5
20260906062533 75 125 0.0 0.0 0.00 0.00 0.00 97 1016.5
20260906062027 75 104 0.0 0.9 0.00 0.00 0.00 96 1016.4
20260906061523 75 118 0.0 0.0 0.00 0.00 0.00 96 1016.5
20260906061022 76 112 0.0 0.0 0.00 0.00 0.00 95 1016.6
20260906060519 76 122 0.0 0.0 0.00 0.00 0.00 95 1016.5
20260906060016 76 113 0.0 0.9 0.00 0.00 0.00 94 1016.5
20260906055511 76 114 0.0 0.0 0.00 0.00 0.00 94 1016.4
20260906055006 77 127 0.0 0.0 0.00 0.00 0.00 94 1016.4
20260906054501 77 106 0.0 0.0 0.00 0.00 0.00 94 1016.4
20260906053956 77 46 1.7 4.3 0.00 0.00 0.00 94 1016.6
20260906053453 77 104 0.0 0.0 0.00 0.00 0.00 95 1016.5
20260906052948 76 97 0.9 1.7 0.00 0.00 0.00 95 1016.4
20260906052444 76 193 0.0 0.0 0.00 0.00 0.00 96 1016.5
20260906051941 76 118 0.0 0.0 0.00 0.00 0.00 96 1016.3
20260906051436 77 114 0.0 0.0 0.00 0.00 0.00 95 1016.2
20260906050932 77 115 0.0 0.0 0.00 0.00 0.00 95 1016.2
20260906050431 77 115 0.0 0.0 0.00 0.00 0.00 95 1016.2
20260906045931 77 110 0.0 0.0 0.00 0.00 0.00 95 1016.0
20260906045429 77 110 0.0 0.0 0.00 0.00 0.00 94 1016.1
20260906044925 77 130 0.0 0.0 0.00 0.00 0.00 94 1016.0
20260906044420 78 126 0.0 0.0 0.00 0.00 0.00 94 1016.0
20260906043916 78 115 0.0 0.0 0.00 0.00 0.00 93 1016.0
20260906043412 78 122 0.0 0.0 0.00 0.00 0.00 93 1016.0
20260906042907 78 130 0.0 0.9 0.00 0.00 0.00 93 1016.1
20260906042406 78 123 0.0 0.0 0.00 0.00 0.00 92 1016.1
20260906041901 78 138 0.0 0.0 0.00 0.00 0.00 92 1015.9
20260906041357 78 116 0.0 1.7 0.00 0.00 0.00 92 1016.0
20260906040857 78 148 0.0 0.0 0.00 0.00 0.00 91 1015.8
20260906040352 78 112 0.0 0.9 0.00 0.00 0.00 91 1015.8
20260906035848 78 119 0.0 0.9 0.00 0.00 0.00 91 1015.5
20260906035343 79 99 0.9 1.7 0.00 0.00 0.00 90 1015.5
20260906034838 78 139 0.9 1.7 0.00 0.00 0.00 91 1015.5
20260906034333 78 113 0.0 0.0 0.00 0.00 0.00 93 1015.8
20260906033829 78 116 0.0 0.0 0.00 0.00 0.00 92 1015.2
20260906033328 78 116 0.0 0.0 0.00 0.00 0.00 92 1015.3
20260906032825 78 116 0.0 0.0 0.00 0.00 0.00 92 1015.3
20260906032320 78 116 0.0 0.0 0.00 0.00 0.00 92 1015.4
20260906031815 79 116 0.0 0.0 0.00 0.00 0.00 91 1015.4
20260906031311 79 116 0.0 0.0 0.00 0.00 0.00 91 1015.4
20260906030810 79 116 0.0 0.0 0.00 0.00 0.00 91 1015.5
20260906030305 79 116 0.0 0.0 0.00 0.00 0.00 90 1015.4
20260906025805 79 116 0.0 0.0 0.00 0.00 0.00 90 1015.6
20260906025259 79 104 0.0 0.0 0.00 0.00 0.00 89 1015.6
20260906024758 80 118 0.0 0.0 0.00 0.00 0.00 89 1015.5
20260906024252 80 118 0.0 0.0 0.00 0.00 0.00 88 1015.5
20260906023748 80 118 0.0 0.0 0.00 0.00 0.00 87 1015.4
20260906023242 81 127 0.0 0.0 0.00 0.00 0.00 86 1015.4
20260906022738 80 131 0.0 0.0 0.00 0.00 0.00 87 1015.5
20260906022233 80 116 0.0 0.0 0.00 0.00 0.00 86 1015.4
20260906021729 81 116 0.0 0.0 0.00 0.00 0.00 85 1015.4
20260906021227 81 115 0.0 0.0 0.00 0.00 0.00 84 1015.1
20260906020722 81 115 0.0 0.0 0.00 0.00 0.00 83 1015.3
20260906020217 81 119 0.0 0.0 0.00 0.00 0.00 83 1015.2
20260906015712 82 120 0.0 0.0 0.00 0.00 0.00 82 1015.2
20260906015210 81 124 0.0 0.0 0.00 0.00 0.00 82 1015.1
20260906014710 81 120 0.0 0.0 0.00 0.00 0.00 84 1015.2
20260906014206 81 115 0.0 0.0 0.00 0.00 0.00 85 1014.9
20260906013703 81 108 0.0 0.0 0.00 0.00 0.00 84 1014.6
20260906013203 81 120 0.0 0.0 0.00 0.00 0.00 84 1014.8
20260906012658 81 115 0.0 0.0 0.00 0.00 0.00 83 1014.7
20260906012158 82 115 0.0 0.0 0.00 0.00 0.00 83 1014.7
20260906011654 82 115 0.0 0.0 0.00 0.00 0.00 83 1014.5
20260906011148 82 114 0.0 0.9 0.00 0.00 0.00 82 1014.5
20260906010643 83 111 0.0 0.0 0.00 0.00 0.00 81 1014.4
20260906010140 84 120 0.0 0.0 0.00 0.00 0.00 79 1014.5
20260906005639 84 121 0.0 0.0 0.00 0.00 0.00 78 1014.4
20260906005138 84 121 0.0 0.0 0.00 0.00 0.00 78 1014.2
20260906004638 85 121 0.0 0.0 0.00 0.00 0.00 78 1014.4
20260906004133 85 121 0.0 0.0 0.00 0.00 0.00 78 1014.5
20260906003628 85 121 0.0 0.0 0.00 0.00 0.00 78 1014.2
20260906003124 86 121 0.0 0.0 0.00 0.00 0.00 78 1014.5
20260906002619 86 121 0.0 0.0 0.00 0.00 0.00 76 1014.5
20260906002113 86 121 0.0 0.0 0.00 0.00 0.00 75 1014.5
20260906001608 87 121 0.0 0.0 0.00 0.00 0.00 75 1014.5
20260906001103 87 121 0.0 0.0 0.00 0.00 0.00 73 1014.5
20260906000559 88 121 0.0 0.0 0.00 0.00 0.00 72 1014.7
20260906000054 88 121 0.0 0.0 0.00 0.00 0.00 71 1014.7
20260905235553 88 121 0.0 0.0 0.00 0.00 0.00 70 1014.8
20260905235048 88 121 0.0 0.0 0.00 0.00 0.00 69 1014.9
20260905234543 89 123 0.0 0.0 0.00 0.00 0.00 68 1014.8
20260905234038 89 123 0.0 0.0 0.00 0.00 0.00 67 1015.0
20260905233533 89 111 0.0 0.0 0.00 0.00 0.00 68 1015.0
20260905233033 89 111 0.0 0.0 0.00 0.00 0.00 67 1014.8
20260905232528 90 110 0.0 0.0 0.00 0.00 0.00 66 1014.9
20260905232024 91 113 0.0 0.0 0.00 0.00 0.00 64 1015.0
20260905231519 91 113 0.0 0.0 0.00 0.00 0.00 63 1014.9
20260905231015 92 113 0.0 0.0 0.00 0.00 0.00 63 1014.8
20260905230514 92 113 0.0 0.0 0.00 0.00 0.00 62 1014.7
20260905230013 93 113 0.0 0.0 0.00 0.00 0.00 61 1014.6
20260905225508 93 113 0.0 0.0 0.00 0.00 0.00 59 1014.6
20260905225003 93 100 0.9 0.9 0.00 0.00 0.00 56 1014.5
20260905224458 94 125 0.0 0.9 0.00 0.00 0.00 56 1014.4
20260905223957 94 69 0.0 0.9 0.00 0.00 0.00 55 1014.5
20260905223455 95 108 0.0 2.6 0.00 0.00 0.00 52 1014.5
20260905222950 96 104 0.9 1.7 0.00 0.00 0.00 52 1014.3
20260905222450 98 118 0.0 1.7 0.00 0.00 0.00 50 1014.2
20260905221945 98 174 0.0 0.9 0.00 0.00 0.00 47 1014.3
20260905221441 98 205 0.9 4.3 0.00 0.00 0.00 48 1014.4
20260905220938 98 120 0.9 2.6 0.00 0.00 0.00 47 1014.4
20260905220433 100 29 0.9 2.6 0.00 0.00 0.00 46 1014.2
20260905215932 100 147 0.9 0.9 0.00 0.00 0.00 46 1014.3
20260905215428 99 259 1.7 2.6 0.00 0.00 0.00 46 1014.4
20260905214924 99 19 0.0 2.6 0.00 0.00 0.00 46 1014.4
20260905214420 99 261 0.9 2.6 0.00 0.00 0.00 46 1014.5
20260905213920 99 353 4.3 5.2 0.00 0.00 0.00 45 1014.5
20260905213416 99 242 2.6 6.1 0.00 0.00 0.00 46 1014.6
20260905212911 99 263 2.6 5.2 0.00 0.00 0.00 45 1014.7
20260905212406 99 156 0.9 4.3 0.00 0.00 0.00 45 1014.5
20260905211900 98 192 0.9 2.6 0.00 0.00 0.00 46 1014.5
20260905211355 99 163 0.9 4.3 0.00 0.00 0.00 45 1014.5
20260905210851 100 253 2.6 4.3 0.00 0.00 0.00 45 1014.6
20260905210351 99 276 1.7 5.2 0.00 0.00 0.00 45 1014.7
20260905205850 99 21 1.7 5.2 0.00 0.00 0.00 45 1014.6
20260905205345 99 172 1.7 5.2 0.00 0.00 0.00 44 1014.7
20260905204844 99 331 2.6 5.2 0.00 0.00 0.00 45 1014.7
20260905204341 100 97 0.9 5.2 0.00 0.00 0.00 44 1014.7
20260905203839 102 283 1.7 2.6 0.00 0.00 0.00 44 1014.8
20260905203335 102 21 1.7 1.7 0.00 0.00 0.00 43 1015.0
20260905202831 101 124 0.0 0.0 0.00 0.00 0.00 43 1014.9
20260905202325 101 38 1.7 2.6 0.00 0.00 0.00 45 1014.8
20260905201821 98 141 0.9 0.9 0.00 0.00 0.00 47 1015.1
20260905201316 100 72 1.7 2.6 0.00 0.00 0.00 47 1015.1
20260905200811 100 170 0.9 2.6 0.00 0.00 0.00 47 1015.1
20260905200307 100 138 1.7 2.6 0.00 0.00 0.00 47 1015.1
20260905195804 99 170 1.7 2.6 0.00 0.00 0.00 46 1015.3
20260905195259 99 127 0.0 2.6 0.00 0.00 0.00 46 1015.4
20260905194755 100 12 3.5 6.1 0.00 0.00 0.00 46 1015.5
20260905194255 99 115 0.9 2.6 0.00 0.00 0.00 47 1015.5
20260905193754 98 318 1.7 1.7 0.00 0.00 0.00 47 1015.8
20260905193249 98 97 0.9 2.6 0.00 0.00 0.00 47 1015.8
20260905192744 97 140 1.7 1.7 0.00 0.00 0.00 48 1015.8
20260905192241 98 184 2.6 4.3 0.00 0.00 0.00 47 1015.9
20260905191740 97 153 0.0 0.9 0.00 0.00 0.00 48 1016.1
20260905191239 96 162 2.6 2.6 0.00 0.00 0.00 49 1016.2
20260905190737 96 151 1.7 2.6 0.00 0.00 0.00 49 1016.2
20260905190236 97 167 0.9 2.6 0.00 0.00 0.00 48 1016.2
20260905185736 97 291 0.9 1.7 0.00 0.00 0.00 48 1016.6
20260905185231 96 149 1.7 4.3 0.00 0.00 0.00 49 1016.5
20260905184725 97 140 0.0 0.9 0.00 0.00 0.00 47 1016.6
20260905184224 96 134 0.9 2.6 0.00 0.00 0.00 47 1016.6
20260905183724 96 140 0.9 1.7 0.00 0.00 0.00 49 1016.7
20260905183219 96 338 0.9 4.3 0.00 0.00 0.00 49 1016.8
20260905182719 95 106 0.0 4.3 0.00 0.00 0.00 49 1016.7
20260905182218 96 157 0.9 4.3 0.00 0.00 0.00 48 1016.9
20260905181714 96 120 0.0 2.6 0.00 0.00 0.00 47 1017.0
20260905181213 96 163 0.9 2.6 0.00 0.00 0.00 49 1017.2
20260905180707 96 188 2.6 4.3 0.00 0.00 0.00 48 1017.2
20260905180203 95 165 1.7 2.6 0.00 0.00 0.00 51 1017.2
20260905175702 95 263 2.6 7.0 0.00 0.00 0.00 51 1017.2
20260905175157 94 126 1.7 1.7 0.00 0.00 0.00 50 1017.2
20260905174653 94 150 2.6 5.2 0.00 0.00 0.00 51 1017.2
20260905174148 94 129 2.6 4.3 0.00 0.00 0.00 52 1017.3
20260905173644 94 175 0.9 2.6 0.00 0.00 0.00 50 1017.3
20260905173140 94 275 1.7 4.3 0.00 0.00 0.00 51 1017.4
20260905172639 93 130 2.6 2.6 0.00 0.00 0.00 53 1017.4
20260905172133 93 170 4.3 5.2 0.00 0.00 0.00 53 1017.5
20260905171630 94 201 2.6 2.6 0.00 0.00 0.00 51 1017.5
20260905171125 93 169 0.9 2.6 0.00 0.00 0.00 54 1017.4
20260905170622 92 127 3.5 5.2 0.00 0.00 0.00 55 1017.5
20260905170117 92 329 2.6 5.2 0.00 0.00 0.00 56 1017.5
20260905165611 92 202 1.7 5.2 0.00 0.00 0.00 57 1017.6
20260905165107 92 149 1.7 5.2 0.00 0.00 0.00 57 1017.8
20260905164601 92 145 0.9 5.2 0.00 0.00 0.00 55 1018.0
20260905164055 91 205 0.9 2.6 0.00 0.00 0.00 57 1018.1
20260905163552 92 106 1.7 2.6 0.00 0.00 0.00 56 1018.0
20260905163048 91 136 0.0 1.7 0.00 0.00 0.00 57 1018.0
20260905162544 90 253 2.6 6.1 0.00 0.00 0.00 56 1018.2
20260905162043 91 186 1.7 5.2 0.00 0.00 0.00 57 1018.5
20260905161543 91 224 1.7 2.6 0.00 0.00 0.00 54 1018.5
20260905161041 92 139 0.9 1.7 0.00 0.00 0.00 55 1018.4
20260905160539 91 204 0.9 2.6 0.00 0.00 0.00 56 1018.3
20260905160034 89 286 2.6 2.6 0.00 0.00 0.00 60 1018.2
20260905155534 89 161 2.6 4.3 0.00 0.00 0.00 60 1018.3
20260905155033 90 187 0.9 5.2 0.00 0.00 0.00 59 1018.2
20260905154528 89 145 0.9 5.2 0.00 0.00 0.00 58 1018.2
20260905154024 89 125 3.5 4.3 0.00 0.00 0.00 57 1018.2
20260905153520 89 166 2.6 5.2 0.00 0.00 0.00 57 1018.3
20260905153019 89 123 2.6 2.6 0.00 0.00 0.00 57 1018.5
20260905152519 88 142 0.9 2.6 0.00 0.00 0.00 58 1018.6
20260905152015 88 160 1.7 4.3 0.00 0.00 0.00 59 1018.5
20260905151510 88 157 0.9 5.2 0.00 0.00 0.00 58 1018.7
20260905151005 87 73 0.9 1.7 0.00 0.00 0.00 58 1018.6
20260905150500 88 199 3.5 5.2 0.00 0.00 0.00 57 1018.5
20260905145956 88 149 0.9 2.6 0.00 0.00 0.00 59 1018.4
20260905145451 87 134 0.0 1.7 0.00 0.00 0.00 61 1018.7
20260905144950 87 159 0.9 2.6 0.00 0.00 0.00 59 1018.7
20260905144446 86 111 0.9 2.6 0.00 0.00 0.00 61 1018.8
20260905143945 87 127 0.0 1.7 0.00 0.00 0.00 61 1018.8
20260905143444 87 170 0.9 0.9 0.00 0.00 0.00 62 1018.9
20260905142939 85 128 0.0 0.9 0.00 0.00 0.00 63 1018.8
20260905142438 85 182 0.9 4.3 0.00 0.00 0.00 64 1018.9
20260905141933 85 96 0.0 2.6 0.00 0.00 0.00 68 1019.2
20260905141428 84 125 0.9 4.3 0.00 0.00 0.00 68 1019.2
20260905140924 84 112 0.9 1.7 0.00 0.00 0.00 70 1019.2
20260905140420 83 169 1.7 2.6 0.00 0.00 0.00 70 1019.3
20260905135918 82 124 1.7 2.6 0.00 0.00 0.00 72 1019.1
20260905135414 82 132 1.7 1.7 0.00 0.00 0.00 74 1019.4
20260905134909 81 159 0.9 4.3 0.00 0.00 0.00 77 1019.3
20260905134408 80 136 0.0 0.0 0.00 0.00 0.00 80 1019.5
20260905133903 78 131 0.9 1.7 0.00 0.00 0.00 83 1019.3
20260905133358 78 252 1.7 1.7 0.00 0.00 0.00 83 1019.6
20260905132857 78 158 0.0 2.6 0.00 0.00 0.00 83 1019.5
20260905132352 79 124 1.7 1.7 0.00 0.00 0.00 83 1019.8
20260905131846 80 160 0.9 1.7 0.00 0.00 0.00 82 1019.7
20260905131342 81 179 0.9 1.7 0.00 0.00 0.00 80 1020.0
20260905130837 80 178 1.7 4.3 0.00 0.00 0.00 79 1020.1
20260905130336 79 205 1.7 1.7 0.00 0.00 0.00 81 1020.0
20260905125832 79 137 0.9 4.3 0.00 0.00 0.00 82 1019.7
20260905125326 79 231 1.7 2.6 0.00 0.00 0.00 84 1019.5
20260905124823 78 151 1.7 4.3 0.00 0.00 0.00 85 1019.4
20260905124319 77 126 0.0 0.9 0.00 0.00 0.00 92 1019.7
20260905123813 76 127 0.9 0.9 0.00 0.00 0.00 96 1019.7
20260905123310 76 120 0.0 1.7 0.00 0.00 0.00 97 1019.9
20260905122809 75 109 0.9 1.7 0.00 0.00 0.00 99 1019.5
20260905122309 75 66 0.0 0.0 0.00 0.00 0.00 99 1018.6
20260905121805 75 123 0.0 0.0 0.00 0.00 0.00 99 1018.5
20260905121301 75 120 0.0 0.0 0.00 0.00 0.00 99 1018.1
20260905120759 75 126 0.0 0.0 0.00 0.00 0.00 99 1018.1
20260905120300 75 124 0.0 0.0 0.00 0.00 0.00 99 1017.9
20260905115754 75 149 0.0 0.0 0.00 0.00 0.00 99 1018.0
20260905115249 75 115 0.0 0.0 0.00 0.00 0.00 99 1018.3
20260905114748 74 127 0.0 0.0 0.00 0.00 0.00 99 1018.3
20260905114247 74 116 0.0 0.0 0.00 0.00 0.00 99 1018.3
20260905113746 74 101 0.0 0.0 0.00 0.00 0.00 98 1018.1
20260905113243 75 120 0.0 0.0 0.00 0.00 0.00 98 1018.1
20260905112737 75 127 0.0 0.0 0.00 0.00 0.00 98 1018.0
20260905112232 75 120 0.0 0.0 0.00 0.00 0.00 98 1017.7
20260905111727 75 121 0.0 0.9 0.00 0.00 0.00 98 1017.7
20260905111221 75 121 0.0 1.7 0.00 0.00 0.00 97 1018.2
20260905110720 75 126 0.0 0.0 0.00 0.00 0.00 97 1017.9
20260905110215 75 109 0.0 0.0 0.00 0.00 0.00 97 1017.6
20260905105710 75 112 0.0 0.0 0.00 0.00 0.00 96 1017.6
20260905105209 75 115 0.0 0.0 0.00 0.00 0.00 96 1017.5
20260905104704 75 118 0.0 0.0 0.00 0.00 0.00 96 1017.3
20260905104200 75 123 0.0 0.0 0.00 0.00 0.00 96 1017.1
20260905103655 75 131 0.0 0.0 0.00 0.00 0.00 96 1017.1
20260905103151 75 128 0.0 1.7 0.00 0.00 0.00 96 1017.3
20260905102646 74 132 0.0 0.0 0.00 0.00 0.00 96 1017.2
20260905102143 74 117 0.0 0.0 0.00 0.00 0.00 95 1017.0
20260905101641 74 107 0.0 0.0 0.00 0.00 0.00 95 1016.9
20260905101140 74 124 0.0 0.0 0.00 0.00 0.00 94 1017.1
20260905100636 74 122 0.0 0.0 0.00 0.00 0.00 94 1016.9